When you browse on this site, cookies collect data to enhance your experience and personalize the content and advertising you see.
Visit our Privacy Policy to learn more. By continuing to use the site, you agree to this use of cookies and data.

Météo par heure à Chodzież

Ce jour, 14 Juillet, Mardi

Heure Température Précipitation Vent Pression Humidité
00:00 +13°C° 0 mm 1 m/s 756 mmHg 80%
01:00 +13°C° 0 mm 1 m/s 756 mmHg 82%
02:00 +12°C° 0 mm 1 m/s 756 mmHg 83%
03:00 +12°C° 0 mm 1 m/s 756 mmHg 84%
04:00 +12°C° 0 mm 1 m/s 756 mmHg 85%
05:00 +14°C° 0 mm 1 m/s 756 mmHg 80%
06:00 +16°C° 0 mm 1 m/s 755 mmHg 74%
07:00 +17°C° 0 mm 2 m/s 755 mmHg 69%
08:00 +19°C° 0 mm 2 m/s 755 mmHg 64%
09:00 +21°C° 0 mm 2 m/s 755 mmHg 58%
10:00 +23°C° 0 mm 2 m/s 755 mmHg 53%
11:00 +24°C° 0 mm 2 m/s 755 mmHg 51%
12:00 +24°C° 0 mm 2 m/s 754 mmHg 48%
13:00 +25°C° 0 mm 2 m/s 754 mmHg 46%
14:00 +25°C° 0 mm 3 m/s 754 mmHg 48%
15:00 +25°C° 0 mm 3 m/s 753 mmHg 49%
16:00 +25°C° 0 mm 3 m/s 753 mmHg 50%
17:00 +24°C° 0 mm 3 m/s 752 mmHg 56%
18:00 +22°C° 0 mm 3 m/s 752 mmHg 61%
19:00 +21°C° 0 mm 3 m/s 752 mmHg 67%
20:00 +19°C° 0 mm 3 m/s 752 mmHg 69%
21:00 +18°C° 0 mm 3 m/s 752 mmHg 70%
22:00 +17°C° 0 mm 3 m/s 752 mmHg 72%
23:00 +16°C° 0 mm 3 m/s 752 mmHg 74%

Demain, 15 Juillet, Mercredi

Heure Température Précipitation Vent Pression Humidité
00:00 +16°C° 0 mm 3 m/s 752 mmHg 75%
01:00 +14°C° 0 mm 3 m/s 752 mmHg 76%
02:00 +14°C° 0 mm 3 m/s 751 mmHg 78%
03:00 +13°C° 0 mm 3 m/s 751 mmHg 80%
04:00 +14°C° 0 mm 2 m/s 751 mmHg 82%
05:00 +16°C° 0 mm 2 m/s 751 mmHg 79%
06:00 +17°C° 0 mm 3 m/s 751 mmHg 75%
07:00 +19°C° 0 mm 3 m/s 751 mmHg 72%
08:00 +20°C° 0.1 mm 3 m/s 751 mmHg 66%
09:00 +22°C° 0.1 mm 3 m/s 751 mmHg 61%
10:00 +23°C° 0.1 mm 4 m/s 751 mmHg 56%
11:00 +25°C° 0.1 mm 4 m/s 750 mmHg 53%
12:00 +26°C° 0.1 mm 4 m/s 750 mmHg 50%
13:00 +26°C° 0.1 mm 4 m/s 750 mmHg 46%
14:00 +26°C° 0.1 mm 4 m/s 750 mmHg 50%
15:00 +25°C° 0.1 mm 4 m/s 750 mmHg 54%
16:00 +23°C° 0.1 mm 4 m/s 750 mmHg 57%
17:00 +21°C° 1.6 mm 3 m/s 750 mmHg 69%
18:00 +19°C° 1.6 mm 3 m/s 750 mmHg 80%
19:00 +17°C° 1.6 mm 2 m/s 750 mmHg 91%
20:00 +17°C° 0.2 mm 2 m/s 750 mmHg 91%
21:00 +17°C° 0.2 mm 2 m/s 750 mmHg 90%
22:00 +18°C° 0.2 mm 1 m/s 750 mmHg 90%
23:00 +16°C° 0.7 mm 1 m/s 750 mmHg 92%

Après-demain, 16 Juillet, Jeudi

Heure Température Précipitation Vent Pression Humidité
00:00 +16°C° 0.7 mm 1 m/s 750 mmHg 94%
01:00 +16°C° 0.7 mm 1 m/s 750 mmHg 96%
02:00 +16°C° 0.4 mm 1 m/s 750 mmHg 95%
03:00 +16°C° 0.4 mm 1 m/s 750 mmHg 95%
04:00 +15°C° 0.4 mm 2 m/s 750 mmHg 95%
05:00 +16°C° 0.4 mm 2 m/s 750 mmHg 93%
06:00 +16°C° 0.4 mm 3 m/s 751 mmHg 91%
07:00 +15°C° 0.4 mm 4 m/s 751 mmHg 89%
08:00 +18°C° 0.1 mm 4 m/s 751 mmHg 80%
09:00 +19°C° 0.1 mm 4 m/s 751 mmHg 71%
10:00 +20°C° 0.1 mm 4 m/s 751 mmHg 63%
11:00 +21°C° 0.4 mm 5 m/s 751 mmHg 62%
12:00 +21°C° 0.4 mm 5 m/s 751 mmHg 61%
13:00 +21°C° 0.4 mm 5 m/s 751 mmHg 61%
14:00 +21°C° 0.5 mm 5 m/s 751 mmHg 63%
15:00 +20°C° 0.5 mm 5 m/s 751 mmHg 66%
16:00 +20°C° 0.5 mm 5 m/s 751 mmHg 68%
17:00 +19°C° 1 mm 5 m/s 751 mmHg 73%
18:00 +18°C° 1 mm 4 m/s 751 mmHg 78%
19:00 +17°C° 1 mm 3 m/s 751 mmHg 83%
20:00 +16°C° 0.2 mm 3 m/s 751 mmHg 86%
21:00 +14°C° 0.2 mm 3 m/s 752 mmHg 90%
22:00 +14°C° 0.2 mm 2 m/s 752 mmHg 93%
23:00 +14°C° 0 mm 2 m/s 752 mmHg 94%

17 Juillet, Vendredi

Heure Température Précipitation Vent Pression Humidité
00:00 +13°C° 0 mm 2 m/s 752 mmHg 95%
01:00 +13°C° 0 mm 2 m/s 752 mmHg 95%
02:00 +13°C° 0 mm 2 m/s 752 mmHg 96%
03:00 +12°C° 0 mm 2 m/s 752 mmHg 97%
04:00 +12°C° 0 mm 2 m/s 752 mmHg 97%
05:00 +12°C° 0 mm 3 m/s 752 mmHg 95%
06:00 +14°C° 0 mm 3 m/s 752 mmHg 93%
07:00 +16°C° 0 mm 3 m/s 752 mmHg 91%
08:00 +16°C° 0.3 mm 3 m/s 752 mmHg 90%
09:00 +16°C° 0.3 mm 3 m/s 752 mmHg 89%
10:00 +17°C° 0.3 mm 2 m/s 752 mmHg 89%
11:00 +17°C° 0.5 mm 3 m/s 752 mmHg 88%
12:00 +17°C° 0.5 mm 3 m/s 752 mmHg 88%
13:00 +17°C° 0.5 mm 3 m/s 753 mmHg 87%
14:00 +18°C° 0.3 mm 3 m/s 752 mmHg 85%
15:00 +18°C° 0.3 mm 2 m/s 752 mmHg 83%
16:00 +19°C° 0.3 mm 2 m/s 752 mmHg 81%
17:00 +20°C° 0 mm 1 m/s 752 mmHg 82%
18:00 +20°C° 0 mm 1 m/s 752 mmHg 83%
19:00 +18°C° 0 mm 0 m/s 752 mmHg 83%
20:00 +17°C° 0 mm 0 m/s 753 mmHg 86%
21:00 +16°C° 0 mm 0 m/s 753 mmHg 88%
22:00 +14°C° 0 mm 0 m/s 753 mmHg 91%
23:00 +15°C° 0 mm 1 m/s 754 mmHg 92%

18 Juillet, Samedi

Heure Température Précipitation Vent Pression Humidité
00:00 +15°C° 0 mm 1 m/s 754 mmHg 93%
01:00 +14°C° 0 mm 1 m/s 754 mmHg 94%
02:00 +14°C° 0 mm 1 m/s 754 mmHg 94%
03:00 +14°C° 0 mm 1 m/s 754 mmHg 95%
04:00 +14°C° 0 mm 1 m/s 754 mmHg 96%
05:00 +15°C° 0 mm 1 m/s 754 mmHg 92%
06:00 +18°C° 0 mm 1 m/s 754 mmHg 87%
07:00 +18°C° 0 mm 2 m/s 754 mmHg 83%
08:00 +21°C° 0 mm 1 m/s 754 mmHg 76%
09:00 +22°C° 0 mm 1 m/s 754 mmHg 69%
10:00 +24°C° 0 mm 1 m/s 754 mmHg 62%
11:00 +24°C° 0.4 mm 2 m/s 754 mmHg 63%
12:00 +25°C° 0.4 mm 2 m/s 754 mmHg 63%
13:00 +25°C° 0.4 mm 3 m/s 754 mmHg 63%
14:00 +25°C° 1.1 mm 3 m/s 754 mmHg 66%
15:00 +25°C° 1.1 mm 3 m/s 754 mmHg 68%
16:00 +25°C° 1.1 mm 3 m/s 753 mmHg 70%
17:00 +24°C° 0.8 mm 3 m/s 753 mmHg 74%
18:00 +22°C° 0.8 mm 3 m/s 753 mmHg 78%
19:00 +21°C° 0.8 mm 2 m/s 753 mmHg 82%
20:00 +20°C° 0.1 mm 2 m/s 753 mmHg 84%
21:00 +19°C° 0.1 mm 3 m/s 753 mmHg 86%
22:00 +17°C° 0.1 mm 3 m/s 754 mmHg 88%
23:00 +17°C° 0 mm 3 m/s 754 mmHg 90%

19 Juillet, Dimanche

Heure Température Précipitation Vent Pression Humidité
00:00 +16°C° 0 mm 3 m/s 753 mmHg 91%
01:00 +16°C° 0 mm 3 m/s 753 mmHg 93%
02:00 +15°C° 0 mm 2 m/s 753 mmHg 94%
03:00 +15°C° 0 mm 2 m/s 753 mmHg 94%
04:00 +15°C° 0 mm 2 m/s 753 mmHg 95%
05:00 +16°C° 0 mm 2 m/s 753 mmHg 92%
06:00 +18°C° 0 mm 2 m/s 753 mmHg 88%
07:00 +19°C° 0 mm 2 m/s 754 mmHg 85%
08:00 +21°C° 0 mm 2 m/s 754 mmHg 79%
09:00 +24°C° 0 mm 2 m/s 754 mmHg 73%
10:00 +25°C° 0 mm 2 m/s 754 mmHg 67%
11:00 +26°C° 1.3 mm 2 m/s 754 mmHg 65%
12:00 +26°C° 1.3 mm 2 m/s 753 mmHg 64%
13:00 +27°C° 1.3 mm 2 m/s 753 mmHg 62%
14:00 +27°C° 1.5 mm 2 m/s 753 mmHg 63%
15:00 +27°C° 1.5 mm 2 m/s 753 mmHg 64%
16:00 +27°C° 1.5 mm 2 m/s 752 mmHg 65%
17:00 +26°C° 0.9 mm 2 m/s 752 mmHg 70%
18:00 +24°C° 0.9 mm 2 m/s 752 mmHg 75%
19:00 +23°C° 0.9 mm 2 m/s 752 mmHg 80%
20:00 +22°C° 0.7 mm 1 m/s 753 mmHg 83%
21:00 +21°C° 0.7 mm 1 m/s 753 mmHg 85%
22:00 +20°C° 0.7 mm 1 m/s 753 mmHg 88%
23:00 +20°C° 0 mm 1 m/s 753 mmHg 89%
Voir plus